Location: Little Lepreau Basin
(45.1272°N, 66.4616°W)
Time: 22:31:50
(UTC-04:00)

ISS - Visible Passes

Search period start: 11 December 2018 00:00
Search period end: 21 December 2018 00:00
Orbit: 401 x 408 km, 51.6° (Epoch: 12 December)

Date Brightness Start Highest point End Pass type
(mag) Time Alt. Az. Time Alt. Az. Time Alt. Az.
11 Dec -3.8 17:51:08 10° WNW 17:54:25 79° SSW 17:57:40 10° SE visible
11 Dec -0.6 19:29:11 10° WSW 19:30:23 12° SW 19:30:39 12° SW visible
12 Dec -1.2 18:35:54 10° W 18:38:25 21° SW 18:40:55 10° S visible
13 Dec -2.2 17:43:19 10° WNW 17:46:21 36° SW 17:49:22 10° SSE visible
15 Dec -0.7 17:35:55 10° W 17:38:07 17° SW 17:40:18 10° S visible
